{"data":{"norad_id":47179,"epoch":"2026-09-20T03:56:33.495648Z","epoch_age_seconds":51026,"freshness":"FRESH","line1":"1 47179U 20088BK  26263.16427657  .00040661  00000+0  89924-3 0  9994","line2":"2 47179  53.1521 116.4261 0001430 108.5765 251.5397 15.43447582321649","mean_motion":15.43447582,"eccentricity":0.000143,"inclination_deg":53.1521,"raan_deg":116.4261,"arg_perigee_deg":108.5765,"mean_anomaly_deg":251.5397,"bstar":0.00089924,"rev_number":32164,"period_min":93.297629073612,"perigee_km":434.96895458249,"apogee_km":436.91778156776,"semimajor_km":6814.0803680751,"source":"CELESTRAK","updated_at":"2026-09-20T09:00:38.588306Z"}}